Location: Helsinki
(60.1699°N, 24.9384°E)
Time: 23:56:04
(UTC+02:00)

Altair - Pass Details

Date: 28 October 2020
Orbit: 1502 x 1682 km, 47.2° (Epoch: 25 November)

Event Time Altitude Azimuth Distance (km) Brightness Sun altitude
Rises 10:01:23 0° 267° (W) 4,728 9.8 12.5°
Reaches altitude 10° 10:04:47 10° 258° (WSW) 3,769 9.4 12.7°
Maximum altitude 10:12:54 33° 200° (SSW) 2,471 9.4 13.2°
Drops below altitude 10° 10:21:16 10° 142° (SE) 3,884 11.8 13.7°
Sets 10:24:51 0° 133° (SE) 4,890 11.5 13.9°
